DFELB EDQD-EDDE

Flight info

Callsign DFELB
Flight time 0h 23m
Altitude 20000
Route LONLI4R LONLI M726 NARUS DCT RELKO RELKO1R
Aircraft TBM9/L-SDFGRWY/S

Departure

Time 2026-05-07 09:06
Airport Bayreuth Airport (EDQD)

Arrival

Time 2026-05-07 09:29
Airport Erfurt-Weimar Airport (EDDE)
Time Latitude Longitude Altitude Speed Heading
2026-05-07 09:00 49.98373 11.63993 1590 ft 0 kts 128°
2026-05-07 09:02 49.98376 11.63972 1595 ft 1 kts 90°
2026-05-07 09:02 49.98386 11.63932 1594 ft 10 kts 248°
2026-05-07 09:02 49.98347 11.63821 1593 ft 14 kts 238°
2026-05-07 09:02 49.98330 11.63775 1593 ft 0 kts 240°
2026-05-07 09:04 49.98307 11.63718 1593 ft 10 kts 237°
2026-05-07 09:04 49.98268 11.63613 1592 ft 13 kts 238°
2026-05-07 09:05 49.98259 11.63488 1591 ft 13 kts 294°
2026-05-07 09:05 49.98282 11.63471 1590 ft 0 kts 66°
2026-05-07 09:05 49.98306 11.63540 1590 ft 35 kts 59°
2026-05-07 09:06 49.98559 11.64213 1598 ft 107 kts 59°
2026-05-07 09:06 49.99011 11.65285 2070 ft 124 kts 61°
2026-05-07 09:06 49.99404 11.66745 2347 ft 166 kts 70°
2026-05-07 09:06 49.99924 11.68587 2526 ft 203 kts 57°
2026-05-07 09:07 50.00881 11.70291 2941 ft 217 kts 39°
2026-05-07 09:07 50.02218 11.71425 3289 ft 220 kts 15°
2026-05-07 09:07 50.03722 11.71704 3627 ft 224 kts 353°
2026-05-07 09:07 50.05204 11.71055 3955 ft 219 kts 330°
2026-05-07 09:08 50.06377 11.69616 4300 ft 214 kts 309°
2026-05-07 09:08 50.07102 11.67625 4648 ft 211 kts 288°
2026-05-07 09:08 50.07306 11.65380 4989 ft 210 kts 270°
2026-05-07 09:08 50.07310 11.63097 5324 ft 212 kts 275°
2026-05-07 09:09 50.07880 11.60951 5354 ft 228 kts 309°
2026-05-07 09:09 50.09240 11.59614 5356 ft 241 kts 342°
2026-05-07 09:09 50.10906 11.59255 5554 ft 238 kts 354°
2026-05-07 09:09 50.12535 11.59039 5945 ft 232 kts 351°
2026-05-07 09:10 50.14116 11.58656 6330 ft 228 kts 347°
2026-05-07 09:10 50.15673 11.58200 6695 ft 227 kts 348°
2026-05-07 09:10 50.17212 11.57777 7057 ft 227 kts 348°
2026-05-07 09:10 50.18768 11.57362 7430 ft 226 kts 348°
2026-05-07 09:11 50.20326 11.56942 7797 ft 227 kts 348°
2026-05-07 09:11 50.21954 11.56500 7643 ft 248 kts 349°
2026-05-07 09:11 50.23688 11.56050 7410 ft 261 kts 349°
2026-05-07 09:11 50.25515 11.55666 7166 ft 268 kts 355°
2026-05-07 09:12 50.27388 11.55761 6932 ft 270 kts
2026-05-07 09:12 50.29263 11.56077 6684 ft 271 kts
2026-05-07 09:12 50.31147 11.56261 6443 ft 271 kts
2026-05-07 09:12 50.33029 11.56338 6116 ft 271 kts
2026-05-07 09:13 50.34902 11.56417 5788 ft 272 kts
2026-05-07 09:13 50.36796 11.56497 5436 ft 272 kts
2026-05-07 09:13 50.38683 11.56572 5106 ft 270 kts
2026-05-07 09:13 50.40558 11.56642 4773 ft 268 kts
2026-05-07 09:14 50.42422 11.56713 4434 ft 266 kts
2026-05-07 09:14 50.44263 11.56782 4086 ft 263 kts 360°
2026-05-07 09:14 50.46053 11.56744 3971 ft 255 kts 358°
2026-05-07 09:14 50.47795 11.56553 3957 ft 248 kts 351°
2026-05-07 09:15 50.49446 11.55824 3963 ft 243 kts 340°
2026-05-07 09:15 50.51034 11.54897 3963 ft 242 kts 339°
2026-05-07 09:15 50.52610 11.53968 3970 ft 242 kts 339°
2026-05-07 09:15 50.54153 11.52998 3961 ft 242 kts 334°
2026-05-07 09:16 50.55650 11.51762 3962 ft 242 kts 331°
2026-05-07 09:16 50.57149 11.50559 3965 ft 242 kts 334°
2026-05-07 09:16 50.58683 11.49441 3966 ft 242 kts 335°
2026-05-07 09:16 50.60219 11.48321 3976 ft 243 kts 335°
2026-05-07 09:17 50.61749 11.47184 3976 ft 248 kts 334°
2026-05-07 09:17 50.63324 11.45997 3972 ft 253 kts 335°
2026-05-07 09:17 50.64912 11.44827 3963 ft 249 kts 335°
2026-05-07 09:17 50.66404 11.43692 3963 ft 227 kts 334°
2026-05-07 09:18 50.67789 11.42631 3964 ft 217 kts 334°
2026-05-07 09:18 50.69127 11.41637 3965 ft 201 kts 335°
2026-05-07 09:18 50.70340 11.40733 3964 ft 186 kts 334°
2026-05-07 09:18 50.71488 11.39879 3964 ft 180 kts 336°
2026-05-07 09:19 50.72618 11.39153 3968 ft 176 kts 339°
2026-05-07 09:19 50.73765 11.38440 3973 ft 175 kts 339°
2026-05-07 09:19 50.74891 11.37731 3981 ft 177 kts 339°
2026-05-07 09:19 50.76043 11.37004 3973 ft 177 kts 339°
2026-05-07 09:20 50.77182 11.36299 3977 ft 174 kts 339°
2026-05-07 09:20 50.78229 11.35647 3977 ft 174 kts 338°
2026-05-07 09:20 50.79355 11.34952 3976 ft 173 kts 339°
2026-05-07 09:20 50.80479 11.34252 3980 ft 173 kts 339°
2026-05-07 09:21 50.81601 11.33551 3979 ft 173 kts 339°
2026-05-07 09:21 50.82724 11.32847 3980 ft 174 kts 339°
2026-05-07 09:21 50.83852 11.32142 3981 ft 174 kts 339°
2026-05-07 09:21 50.84977 11.31436 3979 ft 174 kts 339°
2026-05-07 09:22 50.86099 11.30736 3983 ft 173 kts 339°
2026-05-07 09:22 50.87219 11.30041 3986 ft 174 kts 339°
2026-05-07 09:22 50.88334 11.29349 3987 ft 174 kts 339°
2026-05-07 09:22 50.89465 11.28644 3984 ft 174 kts 339°
2026-05-07 09:23 50.90596 11.27945 3985 ft 174 kts 339°
2026-05-07 09:23 50.91720 11.27251 3988 ft 173 kts 339°
2026-05-07 09:23 50.92843 11.26552 3988 ft 173 kts 339°
2026-05-07 09:23 50.93970 11.25854 3987 ft 174 kts 339°
2026-05-07 09:24 50.95099 11.25155 3990 ft 174 kts 338°
2026-05-07 09:24 50.96011 11.23970 3988 ft 172 kts 300°
2026-05-07 09:24 50.96173 11.22122 3989 ft 174 kts 260°
2026-05-07 09:24 50.96077 11.20230 3938 ft 176 kts 276°
2026-05-07 09:25 50.96211 11.18332 3711 ft 165 kts 278°
2026-05-07 09:25 50.96337 11.16627 3494 ft 145 kts 278°
2026-05-07 09:25 50.96445 11.15126 3305 ft 129 kts 278°
2026-05-07 09:25 50.96553 11.13742 3134 ft 124 kts 279°
2026-05-07 09:26 50.96663 11.12392 2968 ft 122 kts 280°
2026-05-07 09:26 50.96767 11.11062 2804 ft 121 kts 279°
2026-05-07 09:26 50.96872 11.09765 2642 ft 116 kts 281°
2026-05-07 09:26 50.96966 11.08562 2483 ft 102 kts 282°
2026-05-07 09:27 50.97052 11.07505 2332 ft 92 kts 282°
2026-05-07 09:27 50.97128 11.06461 2239 ft 100 kts 283°
2026-05-07 09:27 50.97318 11.04186 1941 ft 107 kts 282°
2026-05-07 09:28 50.97408 11.03026 1781 ft 109 kts 282°
2026-05-07 09:28 50.97506 11.01818 1625 ft 110 kts 281°
2026-05-07 09:28 50.97598 11.00613 1467 ft 110 kts 282°
2026-05-07 09:28 50.97697 10.99414 1315 ft 107 kts 283°
2026-05-07 09:29 50.97787 10.98249 1173 ft 107 kts 281°
2026-05-07 09:29 50.97877 10.97096 1043 ft 102 kts 282°
2026-05-07 09:29 50.97967 10.96110 1020 ft 77 kts 279°
2026-05-07 09:29 50.97999 10.95550 1022 ft 24 kts 275°
2026-05-07 09:30 50.97925 10.95376 1023 ft 25 kts 193°
2026-05-07 09:30 50.97801 10.95425 1023 ft 0 kts 92°
2026-05-07 09:30 50.97801 10.95427 1023 ft 1 kts 92°
2026-05-07 09:31 50.97797 10.95500 1023 ft 13 kts 92°
2026-05-07 09:31 50.97785 10.95686 1022 ft 26 kts 96°
2026-05-07 09:31 50.97755 10.96011 1021 ft 26 kts 94°
2026-05-07 09:31 50.97724 10.96132 1021 ft 8 kts 153°
2026-05-07 09:32 50.97719 10.96134 1021 ft 0 kts 172°